Regional Weather Roundup
Issued by NWS Northern Indiana

Home | Current Version | Previous Version | Text Only | Print | Product List | Glossary Off
Versions: 1 2 3 4 5 6 7 8 9 10 11 12 13 14 15 16 17 18 19 20 21 22 23 24 25 26 27 28 29 30 31 32 33 34 35 36 37 38 39 40 41 42 43 44 45 46 47 48 49 50

000
ASUS43 KIWX 020610
RWRIWX

KIWX WEATHER ROUNDUP
NATIONAL WEATHER SERVICE NORTHERN INDIANA
200 AM EDT THU JUL 02 2015

NOTE: "FAIR" INDICATES FEW OR NO CLOUDS BELOW 12,000 FEET WITH NO
SIGNIFICANT WEATHER AND/OR OBSTRUCTIONS TO VISIBILITY.

* THESE STATIONS ARE NOT UNDER NWS QUALITY CONTROL. THEY ALSO MAY NOT
  REPORT WEATHER SUCH AS PRECIPITATION OR FOG.

INZ001>027-020700-
NORTHERN INDIANA

CITY           SKY/WX    TMP DP  RH WIND       PRES   REMARKS
VALPARAISO     CLOUDY    58  54  86 N3        29.99S
6HR MIN TEMP:  56; 6HR MAX TEMP:  61;

SOUTH BEND     MOCLDY    56  53  90 CALM      29.99S
6HR MIN TEMP:  55; 6HR MAX TEMP:  62;

GOSHEN         MOCLDY    56  53  90 N5        29.97F
6HR MIN TEMP:  55; 6HR MAX TEMP:  64;

ANGOLA*          N/A     59  48  67 CALM      29.97S
FORT WAYNE     MOCLDY    59  55  87 N7        29.97S
6HR MIN TEMP:  59; 6HR MAX TEMP:  71;

PERU/GRISSOM   CLOUDY    58  54  84 N6        29.95S
6HR MIN TEMP:  58; 6HR MAX TEMP:  70;


$$
INZ028>050-020700-
CENTRAL INDIANA

CITY           SKY/WX    TMP DP  RH WIND       PRES   REMARKS
LAFAYETTE      CLOUDY    59  52  77 NE7       29.95F
6HR MIN TEMP:  59; 6HR MAX TEMP:  70;

KOKOMO*        CLOUDY    61  54  77 N7        29.95F
6HR MIN TEMP:  59; 6HR MAX TEMP:  72;

MUNCIE*        MOCLDY    64  58  80 N8        29.94F
6HR MIN TEMP:  63; 6HR MAX TEMP:  73;

INDIANAPOLIS   CLOUDY    67  58  72 NE12      29.91S
6HR MIN TEMP:  67; 6HR MAX TEMP:  75;


$$
MIZ043>046-050>051-056>058-064>065-071>073-077>080-020700-
SOUTHWEST LOWER MICHIGAN

CITY           SKY/WX    TMP DP  RH WIND       PRES   REMARKS
BATTLE CREEK   CLEAR     56  52  86 N3        29.98S
6HR MIN TEMP:  55; 6HR MAX TEMP:  65;

BENTON HARBOR  PTCLDY    51  50  96 CALM      29.98S
6HR MIN TEMP:  51; 6HR MAX TEMP:  58;

HOLLAND        CLEAR     55  52  89 N3        29.99F
6HR MIN TEMP:  55; 6HR MAX TEMP:  60;

GRAND RAPIDS   CLEAR     54  52  93 N5        29.99S
6HR MIN TEMP:  54; 6HR MAX TEMP:  63;

KALAMAZOO      CLEAR     54  51  90 N5        29.98S
6HR MIN TEMP:  53; 6HR MAX TEMP:  63;


$$
OHZ001>008-015>018-024>025-020700-
NORTHWEST OHIO

CITY           SKY/WX    TMP DP  RH WIND       PRES   REMARKS
DEFIANCE       CLOUDY    61  55  81 N3        29.96S
6HR MIN TEMP:  61; 6HR MAX TEMP:  71;

FINDLAY        CLOUDY    64  59  83 CALM      29.94S
6HR MIN TEMP:  63; 6HR MAX TEMP:  73;

TOLEDO EXPRESS CLOUDY    62  55  77 NE6       29.95S
6HR MIN TEMP:  62; 6HR MAX TEMP:  71;

TOLEDO METCALF CLOUDY    66  58  75 NE6       29.96S
6HR MIN TEMP:  66; 6HR MAX TEMP:  73;

LIMA           PTCLDY    62  57  83 N5        29.95S
6HR MIN TEMP:  62; 6HR MAX TEMP:  72;


$$
AND FOR LAKE MICHIGAN COASTAL AND OPEN LAKE BUOY OBSERVATIONS

STATION/POSITION TEMP    WIND        PRES    VSBY  WAVE
                 AIR SEA DIR/SP/G                  HT/PER
                 (F)     (DEG/KT/KT) (MB)    (MI)  (FT/S)
CALUMET HARBOR    57     350/  7/ 10   N/A
MICHIGAN CITY     58     350/ 12/ 14   N/A
BURNS HARBOR      58      30/ 10/ 13 1016.3S
SAINT JOSEPH      56      30/  3/  8   N/A
4 MI NW BRIDGMAN  58 63                N/A           3/ 5
MICHIGAN CITY     60 64   50/ 10/ 12   N/A           3/ 5

$$
&&


USA.gov is the U.S. government's official web portal to all federal, state and local government web resources and services.